Time,TemperatureF,DewpointF,PressureIn,WindDirection,WindDirectionDegrees,WindSpeedMPH,WindSpeedGustMPH,Humidity,HourlyPrecipIn,Conditions,Clouds,dailyrainin,SoftwareType,DateUTC
2013-01-25 00:11:00,7.7,-6.0,30.22,WSW,243,8.0,18.0,54,0.00,,,0.00,weatherlink.com 1.10,2013-01-25 05:11:00,
2013-01-25 00:27:00,7.5,-6.0,30.22,SW,214,3.0,9.0,55,0.00,,,0.00,weatherlink.com 1.10,2013-01-25 05:27:00,
2013-01-25 00:42:00,7.3,-6.0,30.22,NW,310,1.0,10.0,56,0.00,,,0.00,weatherlink.com 1.10,2013-01-25 05:42:00,
2013-01-25 00:57:00,7.4,-6.0,30.21,West,278,9.0,17.0,55,0.00,,,0.00,weatherlink.com 1.10,2013-01-25 05:57:00,
2013-01-25 01:12:00,7.4,-6.0,30.21,NW,307,13.0,23.0,55,0.00,,,0.00,weatherlink.com 1.10,2013-01-25 06:12:00,
2013-01-25 01:27:00,7.2,-6.0,30.21,NNW,332,2.0,18.0,55,0.00,,,0.00,weatherlink.com 1.10,2013-01-25 06:27:00,
2013-01-25 01:42:00,7.0,-6.0,30.23,NW,323,2.0,16.0,55,0.00,,,0.00,weatherlink.com 1.10,2013-01-25 06:42:00,
2013-01-25 01:57:00,6.6,-6.0,30.23,NNW,339,1.0,8.0,57,0.00,,,0.00,weatherlink.com 1.10,2013-01-25 06:57:00,
2013-01-25 02:12:00,6.5,-6.0,30.24,North,360,2.0,10.0,57,0.00,,,0.00,weatherlink.com 1.10,2013-01-25 07:12:00,
2013-01-25 02:27:00,6.4,-6.0,30.25,NW,324,4.0,9.0,58,0.00,,,0.00,weatherlink.com 1.10,2013-01-25 07:27:00,
2013-01-25 02:42:00,6.4,-6.0,30.25,NW,310,9.0,12.0,57,0.00,,,0.00,weatherlink.com 1.10,2013-01-25 07:42:00,
2013-01-25 02:57:00,6.3,-6.0,30.25,NW,308,8.0,23.0,57,0.00,,,0.00,weatherlink.com 1.10,2013-01-25 07:57:00,
2013-01-25 03:12:00,6.3,-6.0,30.26,West,270,1.0,15.0,58,0.00,,,0.00,weatherlink.com 1.10,2013-01-25 08:12:00,
2013-01-25 03:27:00,6.1,-6.0,30.26,NNE,28,3.0,11.0,59,0.00,,,0.00,weatherlink.com 1.10,2013-01-25 08:27:00,
2013-01-25 03:42:00,5.9,-6.0,30.25,NW,325,5.0,12.0,59,0.00,,,0.00,weatherlink.com 1.10,2013-01-25 08:42:00,
2013-01-25 03:58:00,5.9,-6.0,30.25,NW,309,12.0,12.0,59,0.00,,,0.00,weatherlink.com 1.10,2013-01-25 08:58:00,
2013-01-25 04:13:00,5.7,-6.0,30.25,WSW,248,7.0,7.0,59,0.00,,,0.00,weatherlink.com 1.10,2013-01-25 09:13:00,
2013-01-25 04:28:00,5.8,-5.0,30.24,NW,326,5.0,12.0,60,0.00,,,0.00,weatherlink.com 1.10,2013-01-25 09:28:00,
2013-01-25 04:43:00,6.0,-5.0,30.24,North,353,2.0,11.0,60,0.00,,,0.00,weatherlink.com 1.10,2013-01-25 09:43:00,
2013-01-25 04:58:00,5.8,-5.0,30.25,WNW,293,2.0,11.0,60,0.00,,,0.00,weatherlink.com 1.10,2013-01-25 09:58:00,
2013-01-25 05:13:00,5.7,-5.0,30.25,West,277,3.0,21.0,61,0.00,,,0.00,weatherlink.com 1.10,2013-01-25 10:13:00,
2013-01-25 05:28:00,5.3,-5.0,30.26,NNW,343,5.0,14.0,62,0.00,,,0.00,weatherlink.com 1.10,2013-01-25 10:28:00,
2013-01-25 05:43:00,5.2,-5.0,30.26,West,278,2.0,12.0,63,0.00,,,0.00,weatherlink.com 1.10,2013-01-25 10:43:00,
2013-01-25 05:58:00,5.1,-5.0,30.27,NNE,17,3.0,8.0,63,0.00,,,0.00,weatherlink.com 1.10,2013-01-25 10:58:00,
2013-01-25 06:13:00,4.8,-5.0,30.27,WSW,252,2.0,8.0,63,0.00,,,0.00,weatherlink.com 1.10,2013-01-25 11:13:00,
2013-01-25 06:28:00,5.1,-5.0,30.27,West,261,5.0,14.0,62,0.00,,,0.00,weatherlink.com 1.10,2013-01-25 11:28:00,
2013-01-25 06:43:00,5.2,-5.0,30.27,WSW,238,1.0,8.0,62,0.00,,,0.00,weatherlink.com 1.10,2013-01-25 11:43:00,
2013-01-25 06:58:00,5.4,-6.0,30.27,NNW,345,1.0,8.0,61,0.00,,,0.00,weatherlink.com 1.10,2013-01-25 11:58:00,
2013-01-25 07:13:00,5.5,-5.0,30.28,North,6,2.0,7.0,61,0.00,,,0.00,weatherlink.com 1.10,2013-01-25 12:13:00,
2013-01-25 07:29:00,5.6,-6.0,30.29,North,360,3.0,9.0,60,0.00,,,0.00,weatherlink.com 1.10,2013-01-25 12:29:00,
2013-01-25 07:44:00,5.8,-5.0,30.29,NW,316,1.0,9.0,60,0.00,,,0.00,weatherlink.com 1.10,2013-01-25 12:44:00,
2013-01-25 07:59:00,6.1,-6.0,30.29,NNW,328,2.0,7.0,59,0.00,,,0.00,weatherlink.com 1.10,2013-01-25 12:59:00,
2013-01-25 08:14:00,6.5,-6.0,30.29,NNW,327,4.0,12.0,58,0.00,,,0.00,weatherlink.com 1.10,2013-01-25 13:14:00,
2013-01-25 08:29:00,7.0,-5.0,30.29,NW,316,6.0,15.0,58,0.00,,,0.00,weatherlink.com 1.10,2013-01-25 13:29:00,
2013-01-25 08:44:00,7.6,-5.0,30.29,North,8,4.0,11.0,57,0.00,,,0.00,weatherlink.com 1.10,2013-01-25 13:44:00,
2013-01-25 08:59:00,8.1,-5.0,30.30,South,187,3.0,13.0,56,0.00,,,0.00,weatherlink.com 1.10,2013-01-25 13:59:00,
2013-01-25 09:14:00,9.1,-5.0,30.30,NNE,19,7.0,9.0,54,0.00,,,0.00,weatherlink.com 1.10,2013-01-25 14:14:00,
2013-01-25 09:29:00,9.4,-5.0,30.30,WSW,254,4.0,10.0,53,0.00,,,0.00,weatherlink.com 1.10,2013-01-25 14:29:00,
2013-01-25 09:44:00,9.9,-4.0,30.30,North,3,1.0,14.0,53,0.00,,,0.00,weatherlink.com 1.10,2013-01-25 14:44:00,
2013-01-25 09:59:00,10.9,-2.0,30.30,NNE,16,3.0,12.0,56,0.00,,,0.00,weatherlink.com 1.10,2013-01-25 14:59:00,
2013-01-25 10:14:00,11.2,-4.0,30.30,WNW,282,5.0,12.0,51,0.00,,,0.00,weatherlink.com 1.10,2013-01-25 15:14:00,
2013-01-25 10:29:00,12.3,-3.0,30.29,WSW,251,4.0,14.0,50,0.00,,,0.00,weatherlink.com 1.10,2013-01-25 15:29:00,
2013-01-25 10:44:00,13.4,-2.0,30.29,NNW,328,4.0,9.0,50,0.00,,,0.00,weatherlink.com 1.10,2013-01-25 15:44:00,
2013-01-25 11:00:00,14.2,-2.0,30.28,West,263,1.0,14.0,48,0.00,,,0.00,weatherlink.com 1.10,2013-01-25 16:00:00,
2013-01-25 11:15:00,14.9,-3.0,30.27,NNW,333,4.0,9.0,46,0.00,,,0.00,weatherlink.com 1.10,2013-01-25 16:15:00,
2013-01-25 11:30:00,14.2,-3.0,30.26,WSW,250,2.0,11.0,46,0.00,,,0.00,weatherlink.com 1.10,2013-01-25 16:30:00,
2013-01-25 11:45:00,14.8,-3.0,30.25,West,274,5.0,11.0,46,0.00,,,0.00,weatherlink.com 1.10,2013-01-25 16:45:00,
2013-01-25 12:00:00,15.5,-2.0,30.25,NW,304,2.0,7.0,46,0.00,,,0.00,weatherlink.com 1.10,2013-01-25 17:00:00,
2013-01-25 12:15:00,16.5,-2.0,30.24,SW,231,2.0,9.0,45,0.00,,,0.00,weatherlink.com 1.10,2013-01-25 17:15:00,
2013-01-25 12:30:00,17.1,-2.0,30.23,SW,225,4.0,11.0,43,0.00,,,0.00,weatherlink.com 1.10,2013-01-25 17:30:00,
2013-01-25 12:45:00,17.3,-2.0,30.23,SW,218,8.0,13.0,42,0.00,,,0.00,weatherlink.com 1.10,2013-01-25 17:45:00,
2013-01-25 13:00:00,18.0,-3.0,30.23,WSW,247,5.0,17.0,40,0.00,,,0.00,weatherlink.com 1.10,2013-01-25 18:00:00,
2013-01-25 13:15:00,18.3,-3.0,30.22,North,6,3.0,9.0,39,0.00,,,0.00,weatherlink.com 1.10,2013-01-25 18:15:00,
2013-01-25 13:30:00,18.6,-4.0,30.20,NW,322,5.0,12.0,37,0.00,,,0.00,weatherlink.com 1.10,2013-01-25 18:30:00,
2013-01-25 13:45:00,19.6,-3.0,30.20,WSW,250,8.0,12.0,37,0.00,,,0.00,weatherlink.com 1.10,2013-01-25 18:45:00,
2013-01-25 14:00:00,20.7,-3.0,30.19,SSW,207,3.0,9.0,35,0.00,,,0.00,weatherlink.com 1.10,2013-01-25 19:00:00,
2013-01-25 14:16:00,20.9,-3.0,30.18,SW,229,8.0,13.0,35,0.00,,,0.00,weatherlink.com 1.10,2013-01-25 19:16:00,
2013-01-25 14:31:00,21.4,-2.0,30.18,SW,231,3.0,15.0,35,0.00,,,0.00,weatherlink.com 1.10,2013-01-25 19:31:00,
2013-01-25 14:46:00,21.8,-3.0,30.17,WSW,239,3.0,10.0,34,0.00,,,0.00,weatherlink.com 1.10,2013-01-25 19:46:00,
2013-01-25 15:01:00,21.0,-3.0,30.17,WSW,240,3.0,6.0,34,0.00,,,0.00,weatherlink.com 1.10,2013-01-25 20:01:00,
2013-01-25 15:16:00,20.2,-4.0,30.16,North,7,4.0,11.0,34,0.00,,,0.00,weatherlink.com 1.10,2013-01-25 20:16:00,
2013-01-25 15:31:00,20.1,-5.0,30.16,West,280,7.0,10.0,33,0.00,,,0.00,weatherlink.com 1.10,2013-01-25 20:31:00,
2013-01-25 15:46:00,20.2,-4.0,30.16,North,6,3.0,6.0,35,0.00,,,0.00,weatherlink.com 1.10,2013-01-25 20:46:00,
2013-01-25 16:01:00,20.3,-4.0,30.16,SW,220,2.0,8.0,34,0.00,,,0.00,weatherlink.com 1.10,2013-01-25 21:01:00,
2013-01-25 16:16:00,20.3,-4.0,30.16,WSW,258,2.0,3.0,34,0.00,,,0.00,weatherlink.com 1.10,2013-01-25 21:16:00,
2013-01-25 16:31:00,20.3,-3.0,30.16,WSW,247,0.0,4.0,35,0.00,,,0.00,weatherlink.com 1.10,2013-01-25 21:31:00,
2013-01-25 16:46:00,19.7,-5.0,30.16,WNW,289,4.0,5.0,34,0.00,,,0.00,weatherlink.com 1.10,2013-01-25 21:46:00,
2013-01-25 17:01:00,19.4,-5.0,30.16,NW,312,3.0,5.0,34,0.00,,,0.00,weatherlink.com 1.10,2013-01-25 22:01:00,
2013-01-25 17:16:00,19.1,-5.0,30.16,WNW,303,1.0,8.0,35,0.00,,,0.00,weatherlink.com 1.10,2013-01-25 22:16:00,
2013-01-25 17:31:00,18.9,-5.0,30.16,WNW,284,1.0,9.0,35,0.00,,,0.00,weatherlink.com 1.10,2013-01-25 22:31:00,
2013-01-25 17:47:00,18.8,-5.0,30.16,North,349,3.0,7.0,35,0.00,,,0.00,weatherlink.com 1.10,2013-01-25 22:47:00,
2013-01-25 18:02:00,18.7,-5.0,30.15,NNW,329,2.0,8.0,35,0.00,,,0.00,weatherlink.com 1.10,2013-01-25 23:02:00,
2013-01-25 18:17:00,18.9,-4.0,30.14,NNE,20,2.0,2.0,36,0.00,,,0.00,weatherlink.com 1.10,2013-01-25 23:17:00,
2013-01-25 18:32:00,18.7,-4.0,30.14,SW,233,0.0,3.0,37,0.00,,,0.00,weatherlink.com 1.10,2013-01-25 23:32:00,
2013-01-25 18:47:00,18.8,-4.0,30.13,West,265,2.0,6.0,37,0.00,,,0.00,weatherlink.com 1.10,2013-01-25 23:47:00,
2013-01-25 19:02:00,18.8,-3.0,30.12,West,265,1.0,2.0,38,0.00,,,0.00,weatherlink.com 1.10,2013-01-26 00:02:00,
2013-01-25 19:17:00,18.7,-2.0,30.12,West,265,0.0,3.0,40,0.00,,,0.00,weatherlink.com 1.10,2013-01-26 00:17:00,
2013-01-25 19:32:00,18.6,-2.0,30.11,West,265,1.0,3.0,41,0.00,,,0.00,weatherlink.com 1.10,2013-01-26 00:32:00,
2013-01-25 19:47:00,18.5,-2.0,30.11,West,265,0.0,2.0,41,0.00,,,0.00,weatherlink.com 1.10,2013-01-26 00:47:00,
2013-01-25 20:02:00,18.9,-1.0,30.11,West,265,0.0,1.0,42,0.00,,,0.00,weatherlink.com 1.10,2013-01-26 01:02:00,
2013-01-25 20:17:00,18.8,-1.0,30.10,West,265,2.0,2.0,42,0.00,,,0.00,weatherlink.com 1.10,2013-01-26 01:17:00,
2013-01-25 20:32:00,18.8,-1.0,30.09,West,265,2.0,2.0,42,0.00,,,0.00,weatherlink.com 1.10,2013-01-26 01:32:00,
2013-01-25 20:47:00,18.4,-1.0,30.09,West,265,0.0,2.0,43,0.00,,,0.00,weatherlink.com 1.10,2013-01-26 01:47:00,
2013-01-25 21:02:00,18.1,-1.0,30.09,West,265,0.0,2.0,43,0.00,,,0.00,weatherlink.com 1.10,2013-01-26 02:02:00,
2013-01-25 21:18:00,18.4,0.0,30.09,WSW,256,2.0,4.0,44,0.00,,,0.00,weatherlink.com 1.10,2013-01-26 02:18:00,
2013-01-25 21:33:00,18.5,-1.0,30.08,WNW,294,2.0,5.0,43,0.00,,,0.00,weatherlink.com 1.10,2013-01-26 02:33:00,
2013-01-25 21:48:00,18.4,-1.0,30.08,WNW,283,1.0,2.0,43,0.00,,,0.00,weatherlink.com 1.10,2013-01-26 02:48:00,
2013-01-25 22:03:00,17.7,0.0,30.07,NNW,335,3.0,7.0,45,0.00,,,0.00,weatherlink.com 1.10,2013-01-26 03:03:00,
2013-01-25 22:18:00,17.8,0.0,30.06,NNE,16,0.0,6.0,46,0.00,,,0.00,weatherlink.com 1.10,2013-01-26 03:18:00,
2013-01-25 22:33:00,18.3,0.0,30.06,NNE,16,2.0,2.0,44,0.00,,,0.00,weatherlink.com 1.10,2013-01-26 03:33:00,
2013-01-25 22:48:00,18.2,-2.0,30.07,NW,318,0.0,2.0,42,0.00,,,0.00,weatherlink.com 1.10,2013-01-26 03:48:00,
2013-01-25 23:03:00,18.0,-2.0,30.07,WSW,244,3.0,7.0,42,0.00,,,0.00,weatherlink.com 1.10,2013-01-26 04:03:00,
2013-01-25 23:18:00,18.0,-1.0,30.07,NW,321,0.0,3.0,43,0.00,,,0.00,weatherlink.com 1.10,2013-01-26 04:18:00,
2013-01-25 23:33:00,17.5,2.0,30.07,West,268,5.0,7.0,51,0.00,,,0.00,weatherlink.com 1.10,2013-01-26 04:33:00,
2013-01-25 23:48:00,17.2,6.0,30.07,North,355,0.0,4.0,61,0.00,,,0.00,weatherlink.com 1.10,2013-01-26 04:48:00,